| time (UTC) | temp C | wind direction | speed KPH | gust KPH | rain 1hr cm | rain 24hr cm | rain mn cm | humidity % | barometer mb |
| 20260504194854 | 21 | 215 | 1.6 | 9.7 | 0.00 | 0.00 | 0.00 | 40 | 1009.2 |
| 20260504194317 | 21 | 238 | 4.8 | 9.7 | 0.00 | 0.00 | 0.00 | 41 | 1009.3 |
| 20260504193826 | 21 | 217 | 3.2 | 12.9 | 0.00 | 0.00 | 0.00 | 41 | 1009.2 |
| 20260504193331 | 21 | 217 | 1.6 | 12.9 | 0.00 | 0.00 | 0.00 | 41 | 1009.2 |
| 20260504192834 | 21 | 247 | 4.8 | 11.3 | 0.00 | 0.00 | 0.00 | 39 | 1009.2 |
| 20260504192320 | 22 | 207 | 4.8 | 9.7 | 0.00 | 0.00 | 0.00 | 39 | 1009.2 |
| 20260504191827 | 22 | 210 | 1.6 | 9.7 | 0.00 | 0.00 | 0.00 | 38 | 1009.3 |
| 20260504191351 | 22 | 177 | 1.6 | 11.3 | 0.00 | 0.00 | 0.00 | 39 | 1009.5 |
| 20260504190832 | 22 | 219 | 3.2 | 11.3 | 0.00 | 0.00 | 0.00 | 38 | 1009.4 |
| 20260504190316 | 22 | 229 | 4.8 | 11.3 | 0.00 | 0.00 | 0.00 | 37 | 1009.4 |
| 20260504185824 | 22 | 265 | 3.2 | 11.3 | 0.00 | 0.00 | 0.00 | 35 | 1009.4 |
| 20260504185326 | 22 | 233 | 3.2 | 9.7 | 0.00 | 0.00 | 0.00 | 38 | 1009.3 |
| 20260504184827 | 22 | 211 | 6.4 | 14.5 | 0.00 | 0.00 | 0.00 | 37 | 1009.5 |
| 20260504184355 | 22 | 219 | 4.8 | 14.5 | 0.00 | 0.00 | 0.00 | 36 | 1009.5 |
| 20260504183835 | 22 | 232 | 4.8 | 11.3 | 0.00 | 0.00 | 0.00 | 38 | 1009.5 |
| 20260504183318 | 22 | 232 | 4.8 | 11.3 | 0.00 | 0.00 | 0.00 | 36 | 1009.6 |
| 20260504182820 | 22 | 222 | 1.6 | 11.3 | 0.00 | 0.00 | 0.00 | 38 | 1009.7 |
| 20260504182325 | 22 | 216 | 6.4 | 11.3 | 0.00 | 0.00 | 0.00 | 38 | 1009.8 |
| 20260504181815 | 22 | 190 | 4.8 | 11.3 | 0.00 | 0.00 | 0.00 | 38 | 1009.8 |
| 20260504181322 | 22 | 220 | 6.4 | 12.9 | 0.00 | 0.00 | 0.00 | 39 | 1010.0 |
| 20260504180827 | 21 | 209 | 4.8 | 12.9 | 0.00 | 0.00 | 0.00 | 36 | 1009.9 |
| 20260504180330 | 21 | 250 | 6.4 | 11.3 | 0.00 | 0.00 | 0.00 | 36 | 1010.0 |
| 20260504175835 | 21 | 226 | 3.2 | 16.1 | 0.00 | 0.00 | 0.00 | 39 | 1010.0 |
| 20260504175317 | 22 | 227 | 8.0 | 16.1 | 0.00 | 0.00 | 0.00 | 36 | 1010.3 |
| 20260504174825 | 22 | 233 | 1.6 | 9.7 | 0.00 | 0.00 | 0.00 | 40 | 1010.2 |
| 20260504174328 | 21 | 205 | 4.8 | 16.1 | 0.00 | 0.00 | 0.00 | 39 | 1010.2 |
| 20260504173832 | 21 | 192 | 4.8 | 16.1 | 0.00 | 0.00 | 0.00 | 38 | 1010.2 |
| 20260504173319 | 21 | 182 | 4.8 | 14.5 | 0.00 | 0.00 | 0.00 | 41 | 1010.3 |
| 20260504172821 | 21 | 209 | 1.6 | 11.3 | 0.00 | 0.00 | 0.00 | 37 | 1010.4 |
| 20260504172328 | 21 | 237 | 6.4 | 11.3 | 0.00 | 0.00 | 0.00 | 38 | 1010.5 |
| 20260504171833 | 21 | 234 | 4.8 | 14.5 | 0.00 | 0.00 | 0.00 | 37 | 1010.4 |
| 20260504171337 | 21 | 209 | 1.6 | 16.1 | 0.00 | 0.00 | 0.00 | 42 | 1010.5 |
| 20260504170841 | 21 | 196 | 6.4 | 16.1 | 0.00 | 0.00 | 0.00 | 38 | 1010.7 |
| 20260504170324 | 21 | 248 | 3.2 | 12.9 | 0.00 | 0.00 | 0.00 | 38 | 1010.6 |
| 20260504160324 | 20 | 194 | 6.4 | 14.5 | 0.00 | 0.00 | 0.00 | 40 | 1011.1 |
| 20260504150837 | 20 | 192 | 4.8 | 14.5 | 0.00 | 0.00 | 0.00 | 41 | 1011.7 |
| 20260504150319 | 19 | 186 | 4.8 | 14.5 | 0.00 | 0.00 | 0.00 | 43 | 1011.6 |
| 20260504141323 | 17 | 224 | 6.4 | 9.7 | 0.00 | 0.00 | 0.00 | 47 | 1012.3 |
| 20260504140825 | 16 | 232 | 3.2 | 9.7 | 0.00 | 0.00 | 0.00 | 48 | 1012.3 |
| 20260504140356 | 16 | 250 | 4.8 | 11.3 | 0.00 | 0.00 | 0.00 | 47 | 1012.4 |
| 20260504130325 | 13 | 178 | 1.6 | 9.7 | 0.00 | 0.00 | 0.00 | 54 | 1013.1 |
| 20260504110321 | 9 | 205 | 0.0 | 0.0 | 0.00 | 0.00 | 0.00 | 63 | 1013.1 |
| 20260504100330 | 8 | 207 | 0.0 | 1.6 | 0.00 | 0.00 | 0.00 | 62 | 1012.7 |
| 20260504081824 | 9 | 209 | 0.0 | 4.8 | 0.00 | 0.00 | 0.00 | 58 | 1012.0 |
| 20260504081328 | 9 | 209 | 0.0 | 4.8 | 0.00 | 0.00 | 0.00 | 57 | 1012.0 |
| 20260504080837 | 9 | 213 | 0.0 | 1.6 | 0.00 | 0.00 | 0.00 | 57 | 1012.0 |
| 20260504080322 | 9 | 213 | 0.0 | 3.2 | 0.00 | 0.00 | 0.00 | 58 | 1012.1 |
| 20260504070320 | 8 | 214 | 0.0 | 0.0 | 0.00 | 0.00 | 0.00 | 67 | 1012.2 |
| 20260504050320 | 6 | 214 | 0.0 | 0.0 | 0.00 | 0.00 | 0.00 | 63 | 1012.3 |
| 20260504045822 | 6 | 214 | 0.0 | 0.0 | 0.00 | 0.00 | 0.00 | 64 | 1012.3 |
| 20260504045324 | 6 | 214 | 0.0 | 0.0 | 0.00 | 0.00 | 0.00 | 64 | 1012.3 |
| 20260504044828 | 6 | 214 | 0.0 | 0.0 | 0.00 | 0.00 | 0.00 | 65 | 1012.2 |
| 20260504044337 | 6 | 214 | 0.0 | 0.0 | 0.00 | 0.00 | 0.00 | 63 | 1012.3 |
| 20260504043821 | 6 | 214 | 0.0 | 0.0 | 0.00 | 0.00 | 0.00 | 63 | 1012.4 |
| 20260504043343 | 6 | 214 | 0.0 | 0.0 | 0.00 | 0.00 | 0.00 | 62 | 1012.4 |
| 20260504042824 | 6 | 214 | 0.0 | 0.0 | 0.00 | 0.00 | 0.00 | 62 | 1012.4 |
| 20260504042326 | 6 | 214 | 0.0 | 0.0 | 0.00 | 0.00 | 0.00 | 63 | 1012.4 |
| 20260504041827 | 6 | 214 | 0.0 | 0.0 | 0.00 | 0.00 | 0.00 | 62 | 1012.4 |
| 20260504041353 | 6 | 214 | 0.0 | 0.0 | 0.00 | 0.00 | 0.00 | 64 | 1012.4 |
| 20260504040837 | 6 | 214 | 0.0 | 0.0 | 0.00 | 0.00 | 0.00 | 64 | 1012.3 |
| 20260504040323 | 7 | 214 | 0.0 | 0.0 | 0.00 | 0.00 | 0.00 | 63 | 1012.3 |
| 20260504035847 | 7 | 214 | 0.0 | 0.0 | 0.00 | 0.00 | 0.00 | 61 | 1012.2 |
| 20260504035331 | 7 | 214 | 0.0 | 0.0 | 0.00 | 0.00 | 0.00 | 61 | 1012.1 |
| 20260504034835 | 7 | 214 | 0.0 | 0.0 | 0.00 | 0.00 | 0.00 | 61 | 1012.1 |
| 20260504034320 | 7 | 214 | 0.0 | 0.0 | 0.00 | 0.00 | 0.00 | 61 | 1012.1 |
| 20260504033824 | 7 | 214 | 0.0 | 0.0 | 0.00 | 0.00 | 0.00 | 62 | 1012.0 |
| 20260504033326 | 7 | 214 | 0.0 | 0.0 | 0.00 | 0.00 | 0.00 | 61 | 1012.0 |
| 20260504032831 | 7 | 214 | 0.0 | 0.0 | 0.00 | 0.00 | 0.00 | 60 | 1012.0 |
| 20260504032316 | 7 | 214 | 0.0 | 0.0 | 0.00 | 0.00 | 0.00 | 61 | 1012.0 |
| 20260504031824 | 7 | 214 | 0.0 | 0.0 | 0.00 | 0.00 | 0.00 | 61 | 1012.0 |
| 20260504031326 | 7 | 214 | 0.0 | 0.0 | 0.00 | 0.00 | 0.00 | 62 | 1012.1 |
| 20260504030829 | 7 | 214 | 0.0 | 0.0 | 0.00 | 0.00 | 0.00 | 62 | 1012.1 |
| 20260504030319 | 7 | 214 | 0.0 | 0.0 | 0.00 | 0.00 | 0.00 | 63 | 1012.0 |
| 20260504025821 | 7 | 214 | 0.0 | 0.0 | 0.00 | 0.00 | 0.00 | 62 | 1012.0 |
| 20260504025323 | 7 | 214 | 0.0 | 0.0 | 0.00 | 0.00 | 0.00 | 61 | 1012.0 |
| 20260504024845 | 7 | 214 | 0.0 | 0.0 | 0.00 | 0.00 | 0.00 | 61 | 1011.9 |
| 20260504024346 | 7 | 214 | 0.0 | 0.0 | 0.00 | 0.00 | 0.00 | 61 | 1011.9 |
| 20260504023828 | 7 | 214 | 0.0 | 0.0 | 0.00 | 0.00 | 0.00 | 60 | 1011.9 |
| 20260504023317 | 7 | 214 | 0.0 | 0.0 | 0.00 | 0.00 | 0.00 | 60 | 1011.9 |
| 20260504022848 | 7 | 214 | 0.0 | 0.0 | 0.00 | 0.00 | 0.00 | 61 | 1011.9 |
| 20260504022330 | 7 | 214 | 0.0 | 0.0 | 0.00 | 0.00 | 0.00 | 61 | 1011.9 |
| 20260504021816 | 7 | 214 | 0.0 | 0.0 | 0.00 | 0.00 | 0.00 | 61 | 1011.8 |
| 20260504021345 | 7 | 214 | 0.0 | 0.0 | 0.00 | 0.00 | 0.00 | 60 | 1011.8 |
| 20260504020833 | 7 | 214 | 0.0 | 0.0 | 0.00 | 0.00 | 0.00 | 60 | 1011.8 |
| 20260504020320 | 7 | 214 | 0.0 | 0.0 | 0.00 | 0.00 | 0.00 | 60 | 1011.8 |
| 20260504015825 | 7 | 214 | 0.0 | 0.0 | 0.00 | 0.00 | 0.00 | 59 | 1011.8 |
| 20260504015330 | 7 | 214 | 0.0 | 0.0 | 0.00 | 0.00 | 0.00 | 58 | 1011.7 |
| 20260504014837 | 7 | 214 | 0.0 | 0.0 | 0.00 | 0.00 | 0.00 | 58 | 1011.7 |
| 20260504014340 | 7 | 214 | 0.0 | 0.0 | 0.00 | 0.00 | 0.00 | 58 | 1011.7 |
| 20260504013822 | 7 | 214 | 0.0 | 0.0 | 0.00 | 0.00 | 0.00 | 59 | 1011.7 |
| 20260504013326 | 7 | 214 | 0.0 | 0.0 | 0.00 | 0.00 | 0.00 | 59 | 1011.6 |
| 20260504012828 | 7 | 214 | 0.0 | 0.0 | 0.00 | 0.00 | 0.00 | 60 | 1011.6 |
| 20260504012330 | 7 | 214 | 0.0 | 0.0 | 0.00 | 0.00 | 0.00 | 59 | 1011.5 |
| 20260504011815 | 7 | 214 | 0.0 | 0.0 | 0.00 | 0.00 | 0.00 | 59 | 1011.4 |
| 20260504011324 | 8 | 214 | 0.0 | 0.0 | 0.00 | 0.00 | 0.00 | 59 | 1011.4 |
| 20260504010827 | 8 | 214 | 0.0 | 0.0 | 0.00 | 0.00 | 0.00 | 58 | 1011.3 |
| 20260504010318 | 8 | 214 | 0.0 | 0.0 | 0.00 | 0.00 | 0.00 | 57 | 1011.2 |
| 20260504005823 | 8 | 214 | 0.0 | 0.0 | 0.00 | 0.00 | 0.00 | 57 | 1011.1 |
| 20260504005329 | 8 | 214 | 0.0 | 0.0 | 0.00 | 0.00 | 0.00 | 57 | 1011.0 |
| 20260504004851 | 8 | 214 | 0.0 | 0.0 | 0.00 | 0.00 | 0.00 | 57 | 1011.0 |
| 20260504004335 | 8 | 214 | 0.0 | 0.0 | 0.00 | 0.00 | 0.00 | 56 | 1010.9 |
| 20260504003819 | 8 | 214 | 0.0 | 0.0 | 0.00 | 0.00 | 0.00 | 55 | 1010.8 |
| 20260504003323 | 9 | 214 | 0.0 | 0.0 | 0.00 | 0.00 | 0.00 | 54 | 1010.7 |
| 20260504002825 | 9 | 214 | 0.0 | 0.0 | 0.00 | 0.00 | 0.00 | 53 | 1010.7 |
| 20260504002328 | 10 | 214 | 0.0 | 0.0 | 0.00 | 0.00 | 0.00 | 54 | 1010.6 |
| 20260504001830 | 10 | 214 | 0.0 | 0.0 | 0.00 | 0.00 | 0.00 | 53 | 1010.5 |
| 20260504001335 | 10 | 214 | 0.0 | 0.0 | 0.00 | 0.00 | 0.00 | 52 | 1010.4 |
| 20260504000840 | 10 | 214 | 0.0 | 0.0 | 0.00 | 0.00 | 0.00 | 52 | 1010.3 |
| 20260504000323 | 10 | 214 | 0.0 | 0.0 | 0.00 | 0.00 | 0.00 | 50 | 1010.3 |
| 20260503235829 | 11 | 214 | 0.0 | 0.0 | 0.00 | 0.00 | 0.00 | 50 | 1010.3 |
| 20260503235317 | 11 | 214 | 0.0 | 0.0 | 0.00 | 0.00 | 0.00 | 46 | 1010.2 |
| 20260503234843 | 11 | 214 | 0.0 | 1.6 | 0.00 | 0.00 | 0.00 | 44 | 1010.1 |
| 20260503234325 | 11 | 214 | 0.0 | 1.6 | 0.00 | 0.00 | 0.00 | 44 | 1010.1 |
| 20260503233829 | 11 | 214 | 0.0 | 0.0 | 0.00 | 0.00 | 0.00 | 44 | 1010.1 |
| 20260503233316 | 11 | 214 | 0.0 | 8.0 | 0.00 | 0.00 | 0.00 | 43 | 1010.1 |
| 20260503232820 | 11 | 136 | 0.0 | 1.6 | 0.00 | 0.00 | 0.00 | 44 | 1010.1 |
| 20260503232322 | 11 | 136 | 0.0 | 1.6 | 0.00 | 0.00 | 0.00 | 44 | 1010.1 |
| 20260503231827 | 11 | 112 | 0.0 | 0.0 | 0.00 | 0.00 | 0.00 | 42 | 1010.0 |
| 20260503231336 | 11 | 112 | 0.0 | 6.4 | 0.00 | 0.00 | 0.00 | 42 | 1010.0 |
| 20260503230820 | 11 | 117 | 0.0 | 8.0 | 0.00 | 0.00 | 0.00 | 42 | 1010.0 |
| 20260503230329 | 11 | 142 | 1.6 | 8.0 | 0.00 | 0.00 | 0.00 | 42 | 1010.0 |
| 20260503225834 | 11 | 157 | 0.0 | 3.2 | 0.00 | 0.00 | 0.00 | 43 | 1009.9 |
| 20260503225318 | 12 | 157 | 0.0 | 4.8 | 0.00 | 0.00 | 0.00 | 42 | 1009.9 |
| 20260503224843 | 12 | 171 | 0.0 | 8.0 | 0.00 | 0.00 | 0.00 | 43 | 1009.9 |
| 20260503224326 | 12 | 148 | 0.0 | 8.0 | 0.00 | 0.00 | 0.00 | 42 | 1009.8 |
| 20260503223832 | 12 | 193 | 0.0 | 6.4 | 0.00 | 0.00 | 0.00 | 43 | 1009.8 |
| 20260503223316 | 12 | 216 | 1.6 | 8.0 | 0.00 | 0.00 | 0.00 | 43 | 1009.7 |
| 20260503222825 | 12 | 209 | 1.6 | 6.4 | 0.00 | 0.00 | 0.00 | 44 | 1009.7 |
| 20260503222332 | 12 | 190 | 0.0 | 6.4 | 0.00 | 0.00 | 0.00 | 45 | 1009.7 |
| 20260503221854 | 12 | 211 | 1.6 | 6.4 | 0.00 | 0.00 | 0.00 | 44 | 1009.6 |
| 20260503221337 | 12 | 184 | 0.0 | 9.7 | 0.00 | 0.00 | 0.00 | 45 | 1009.7 |
| 20260503220821 | 11 | 181 | 0.0 | 8.0 | 0.00 | 0.00 | 0.00 | 44 | 1009.7 |
| 20260503220332 | 11 | 203 | 1.6 | 8.0 | 0.00 | 0.00 | 0.00 | 45 | 1009.8 |
| 20260503215834 | 11 | 200 | 0.0 | 8.0 | 0.00 | 0.00 | 0.00 | 44 | 1009.8 |
| 20260503215319 | 11 | 199 | 1.6 | 9.7 | 0.00 | 0.00 | 0.00 | 44 | 1009.8 |
| 20260503214823 | 11 | 131 | 0.0 | 6.4 | 0.00 | 0.00 | 0.00 | 44 | 1009.8 |
| 20260503214332 | 11 | 204 | 1.6 | 6.4 | 0.00 | 0.00 | 0.00 | 44 | 1009.8 |
| 20260503213817 | 11 | 11 | 0.0 | 9.7 | 0.00 | 0.00 | 0.00 | 43 | 1009.8 |
| 20260503213322 | 11 | 5 | 1.6 | 9.7 | 0.00 | 0.00 | 0.00 | 43 | 1009.8 |
| 20260503212824 | 11 | 169 | 0.0 | 8.0 | 0.00 | 0.00 | 0.00 | 44 | 1009.7 |
| 20260503212326 | 12 | 119 | 3.2 | 9.7 | 0.00 | 0.00 | 0.00 | 43 | 1009.8 |
| 20260503211850 | 12 | 204 | 0.0 | 9.7 | 0.00 | 0.00 | 0.00 | 44 | 1009.8 |
| 20260503211333 | 12 | 232 | 3.2 | 9.7 | 0.00 | 0.00 | 0.00 | 44 | 1009.6 |
| 20260503210823 | 12 | 162 | 0.0 | 8.0 | 0.00 | 0.00 | 0.00 | 44 | 1009.5 |
| 20260503210325 | 12 | 246 | 1.6 | 11.3 | 0.00 | 0.00 | 0.00 | 45 | 1009.5 |
| 20260503205829 | 12 | 99 | 1.6 | 11.3 | 0.00 | 0.00 | 0.00 | 43 | 1009.6 |
| 20260503205355 | 12 | 74 | 0.0 | 16.1 | 0.00 | 0.00 | 0.00 | 42 | 1009.6 |
| 20260503204840 | 12 | 211 | 1.6 | 16.1 | 0.00 | 0.00 | 0.00 | 44 | 1009.5 |
| 20260503204328 | 12 | 222 | 0.0 | 16.1 | 0.00 | 0.00 | 0.00 | 44 | 1009.4 |
| 20260503203831 | 12 | 205 | 1.6 | 16.1 | 0.00 | 0.00 | 0.00 | 44 | 1009.3 |
| 20260503203335 | 12 | 318 | 1.6 | 14.5 | 0.00 | 0.00 | 0.00 | 45 | 1009.4 |
| 20260503202817 | 12 | 21 | 1.6 | 14.5 | 0.00 | 0.00 | 0.00 | 42 | 1009.2 |
| 20260503202324 | 12 | 17 | 1.6 | 11.3 | 0.00 | 0.00 | 0.00 | 42 | 1009.4 |
| 20260503201829 | 12 | 201 | 0.0 | 9.7 | 0.00 | 0.00 | 0.00 | 45 | 1009.2 |
| 20260503201334 | 12 | 5 | 0.0 | 9.7 | 0.00 | 0.00 | 0.00 | 42 | 1009.2 |
| 20260503200823 | 12 | 151 | 0.0 | 19.3 | 0.00 | 0.00 | 0.00 | 43 | 1009.3 |
| 20260503200327 | 12 | 360 | 0.0 | 19.3 | 0.00 | 0.00 | 0.00 | 44 | 1009.2 |
| 20260503195832 | 12 | 224 | 0.0 | 11.3 | 0.00 | 0.00 | 0.00 | 44 | 1009.2 |
| 20260503195334 | 12 | 232 | 0.0 | 12.9 | 0.00 | 0.00 | 0.00 | 42 | 1009.2 |